Vertical_Velocity
2 2 1 8 8 9 10 8 3 14 -5 -6 -4 -5 -34 -25 -33 -20 4 7 7 5 5 3 -5 -1 -0 0 -1 0 0 1 0 -2 -2 -2 -1 -1 -1 -1 1 1 0
10 10 5 2 4 2 -4 1 9 1 -10 -6 8 5 -4 10 7 -1 -13 5 -2 5 5 4 6 -1 -1 2 -2 -0 -1 -2 -1 0 0 -1 -0 -0 -1 -3 -3 -4 -4
4 1 -1 1 0 5 -3 8 4 8 1 -1 0 3 9 0 -1 -7 -3 3 -13 3 2 5 7 6 3 -0 2 -0 -0 2 -0 -1 -2 -0 -2 -3 -0 2 2 0 -0
0 0 0 -1 4 5 1 1 -4 1 -0 2 -0 0 6 8 -2 2 -0 -2 4 -2 10 -1 4 -3 -0 2 0 2 3 0 1 0 1 -0 -1 -0 -1 -1 1 1 2
-1 -1 -1 -1 -1 2 -2 -2 -3 -3 -3 -1 -0 -1 4 3 7 -4 -3 5 3 5 1 5 2 2 6 1 -3 0 1 2 -2 0 1 0 1 1 2 3 2 2 -3
1 -2 -3 -1 1 2 2 2 -0 -5 -4 -5 -8 -4 -1 0 -7 1 3 -3 -2 -3 -1 4 4 2 -0 -1 5 6 5 5 3 3 1 -2 -0 1 2 -0 1 0 3
-2 -1 -0 -2 -1 -1 -2 -1 2 2 1 0 1 -0 -2 -2 -1 -1 1 5 1 3 2 -1 -1 4 7 2 5 -3 -3 5 8 2 8 4 2 4 1 3 -1 -2 -6
-2 -2 -1 1 -0 -1 0 -1 -2 -1 -1 -2 -1 0 1 -1 -2 -2 -1 -3 -2 -1 0 3 -1 -1 11 10 31 22 4 5 5 -1 -4 4 3 -1 1 8 1 3 -2
-1 -1 -1 -1 -1 -1 -1 -2 -2 1 0 -1 -0 -1 -0 1 1 -0 1 0 1 0 -1 -3 -3 -4 5 13 16 -10 39 -8 1 -9 -6 -10 -8 -9 1 4 8 -3 3
-0 -1 -1 -0 -2 -2 -2 -2 -2 -2 -5 -3 -1 -1 1 -0 0 -1 -2 -1 -3 -3 -1 -3 -5 -8 -7 -0 4 -5 -11 -11 -0 5 2 -0 -4 -6 3 1 -3 4 4
-0 0 -0 -1 -2 -1 -2 -2 -0 -1 -1 0 1 -1 -1 -0 -0 -1 -2 -3 -3 -1 -1 -1 1 1 1 4 7 3 2 2 3 0 4 2 -2 -8 4 -5 -0 9 10
0 -0 -1 -1 -2 -2 -1 -2 -2 -3 -3 -2 -2 -3 -3 -2 -2 -3 -3 -3 -2 -1 -3 -1 0 -0 2 3 4 3 1 3 2 -1 -2 -2 -7 1 -5 -9 0 -4 4
-0 -1 -1 -0 -0 -1 0 -0 -1 -2 -1 -1 -1 -1 -2 -2 -2 -2 -2 -2 -2 -2 -1 -1 -4 -3 -3 -2 -0 -0 -0 -1 -0 2 4 5 6 5 1 2 1 5 4
0 -0 0 1 -1 -0 1 -1 -1 -1 -3 -3 -2 -2 -1 -0 0 0 -0 -2 -2 -1 -2 -2 -3 -1 -3 -4 -1 -0 -1 -0 -1 3 3 6 7 3 4 5 2 5 1
2 1 0 1 -0 -2 -1 -3 -2 -3 -2 -2 -4 -1 -1 -3 -4 -2 -1 -2 -1 -2 -3 3 3 1 -0 2 -2 2 -0 -2 -2 -0 -0 -4 -2 -4 0 -1 -5 4 0
-1 -2 -1 -0 -0 -0 0 -2 -3 -2 -1 -3 -4 -2 -2 -2 -2 -0 2 1 -0 -0 -0 -3 -3 -2 -5 -4 -1 -1 -1 1 -0 -1 -0 -0 0 3 3 2 4 -3 -4
-0 -0 1 1 3 -0 0 2 -0 1 -3 -2 -2 -0 -1 -1 -1 -2 -3 -3 -2 -1 -7 -5 -4 -4 -2 -3 -3 -1 -2 -4 -4 -1 -1 -0 -0 2 0 -1 -1 0 -1
-1 0 1 1 1 -2 -2 1 -1 1 -1 -2 -1 -1 -1 -0 -3 -1 -4 -1 -3 -2 -5 -4 -2 -1 2 3 1 -4 -9 -5 -4 3 3 4 -1 -3 -4 -3 -2 -0 2
-0 1 2 -1 -1 1 -0 -0 1 1 -1 -2 -3 0 -2 0 -0 1 3 0 -1 0 0 4 3 -2 -5 -1 -0 0 2 7 6 2 -9 -8 -2 3 -2 -8 -4 -4 -3
-2 -3 1 2 -3 -0 -3 -3 -2 -1 1 -1 -2 1 2 3 0 -1 -5 -5 -3 2 2 2 -0 1 4 5 3 5 3 -1 -5 -2 0 1 0 0 4 11 9 2 -0
-0 -2 0 -0 0 0 1 -1 -4 -3 -3 -3 1 -3 -1 -2 -4 -1 -2 -2 -0 2 0 0 2 4 5 3 1 -0 1 3 5 4 2 2 1 0 1 -0 -1 1 3
-3 1 -0 1 3 3 -0 -0 -0 1 1 2 4 -1 -3 -3 -1 -4 -3 -3 -2 0 4 3 0 -2 -3 -3 -1 -1 -0 1 2 2 2 1 0 -0 0 -2 -2 -1 -1
-2 0 -1 -4 -0 1 -2 -2 -4 2 3 0 -3 -3 -7 -3 0 0 1 -0 -2 -3 -2 0 0 -2 -2 -2 -1 -1 -1 -2 -2 -3 -4 -3 -2 -0 1 -1 0 -1 0
1 2 1 2 -0 1 -2 -2 1 0 -2 -2 -2 -2 1 -0 0 -1 0 0 1 1 -1 -2 -3 -5 -2 1 1 0 -0 0 0 -0 -2 -2 -1 -0 -1 0 1 2 -1
-0 -1 -4 -1 -0 -5 -6 -1 -2 1 -0 -4 -0 -1 0 -2 -1 2 2 0 1 2 -2 -2 -1 -0 1 1 1 1 0 -0 0 0 -1 -1 -0 -0 -1 -0 0 0 -2
-3 -2 3 0 2 -1 2 -0 0 -3 -4 -4 -3 0 2 5 3 1 -1 0 -1 -1 -1 -0 -0 -0 0 -0 0 1 -0 0 0 -0 -1 0 0 1 -0 -0 -0 -1 0
Height
1538 1539 1540 1540 1541 1541 1541 1542 1541 1542 1541 1538 1535 1537 1537 1537 1537 1539 1537 1536 1536 1534 1533 1531 1530 1530 1530 1530 1531 1532 1532 1531 1531 1531 1531 1531 1533 1534 1535 1536 1537 1538 1539
1536 1538 1538 1538 1537 1537 1537 1537 1538 1536 1536 1533 1531 1529 1530 1528 1526 1525 1526 1529 1530 1530 1531 1529 1528 1527 1527 1527 1527 1528 1528 1528 1528 1529 1530 1530 1531 1531 1532 1532 1533 1534 1534
1534 1535 1535 1534 1534 1536 1533 1532 1533 1530 1529 1527 1525 1525 1524 1523 1521 1521 1520 1522 1522 1525 1525 1525 1525 1524 1524 1523 1523 1523 1524 1525 1525 1525 1526 1527 1527 1528 1529 1529 1528 1529 1529
1531 1531 1531 1531 1531 1531 1530 1528 1527 1525 1523 1521 1519 1517 1517 1518 1518 1518 1518 1519 1519 1519 1520 1520 1520 1519 1520 1520 1520 1521 1520 1520 1521 1522 1522 1522 1523 1523 1523 1525 1525 1524 1524
1529 1528 1529 1528 1528 1528 1527 1526 1524 1522 1519 1518 1516 1515 1516 1517 1517 1516 1517 1516 1515 1515 1515 1516 1515 1514 1515 1514 1515 1516 1516 1516 1516 1517 1517 1518 1520 1520 1520 1520 1520 1520 1520
1528 1528 1528 1528 1527 1526 1525 1524 1522 1520 1518 1515 1514 1514 1514 1513 1511 1513 1512 1510 1511 1510 1509 1509 1509 1508 1508 1509 1510 1511 1513 1512 1510 1512 1512 1514 1516 1518 1518 1517 1517 1517 1517
1528 1529 1529 1528 1527 1526 1524 1522 1520 1518 1517 1515 1514 1513 1512 1511 1510 1509 1509 1508 1507 1506 1505 1504 1503 1503 1502 1502 1503 1505 1502 1507 1504 1509 1512 1509 1513 1515 1516 1514 1512 1512 1513
1529 1529 1530 1529 1527 1526 1524 1522 1520 1519 1517 1515 1514 1512 1511 1510 1509 1508 1507 1506 1505 1503 1501 1500 1497 1496 1496 1497 1497 1494 1497 1500 1499 1503 1506 1507 1509 1512 1512 1511 1510 1509 1509
1531 1530 1530 1530 1529 1527 1525 1523 1522 1520 1518 1516 1515 1515 1514 1512 1509 1507 1506 1504 1501 1499 1497 1495 1493 1490 1491 1491 1489 1497 1476 1495 1495 1501 1503 1504 1505 1510 1511 1510 1509 1508 1506
1533 1533 1533 1533 1531 1530 1528 1527 1525 1524 1522 1521 1519 1517 1516 1513 1511 1508 1506 1504 1503 1501 1500 1498 1496 1495 1495 1495 1497 1496 1491 1496 1498 1498 1501 1502 1503 1505 1508 1508 1507 1506 1505
1535 1536 1536 1536 1535 1534 1533 1532 1530 1528 1527 1525 1523 1522 1520 1518 1515 1513 1510 1509 1507 1506 1504 1502 1501 1500 1500 1500 1500 1499 1497 1498 1498 1500 1501 1502 1501 1503 1503 1504 1506 1503 1502
1537 1537 1538 1538 1537 1537 1537 1535 1534 1533 1531 1529 1527 1526 1524 1522 1520 1518 1516 1514 1513 1511 1509 1507 1506 1504 1504 1503 1502 1501 1501 1501 1502 1502 1504 1503 1503 1503 1502 1504 1503 1503 1500
1539 1539 1540 1540 1540 1539 1539 1538 1537 1536 1535 1532 1531 1528 1527 1526 1524 1522 1520 1518 1516 1515 1512 1510 1508 1507 1506 1505 1504 1503 1503 1502 1502 1502 1502 1501 1501 1501 1500 1500 1500 1502 1499
1540 1541 1541 1542 1542 1541 1541 1540 1539 1538 1537 1536 1534 1531 1529 1527 1526 1524 1523 1521 1519 1516 1515 1514 1512 1510 1508 1507 1506 1505 1503 1501 1499 1499 1498 1496 1496 1497 1497 1495 1495 1495 1494
1542 1543 1543 1543 1543 1543 1542 1541 1541 1541 1540 1538 1536 1534 1532 1530 1529 1527 1526 1524 1522 1520 1519 1518 1516 1514 1512 1511 1510 1508 1506 1504 1501 1500 1499 1498 1497 1497 1495 1494 1494 1493 1492
1542 1543 1544 1544 1544 1544 1543 1542 1542 1543 1542 1540 1539 1537 1535 1533 1531 1530 1529 1528 1526 1525 1523 1521 1519 1517 1515 1514 1512 1510 1508 1507 1506 1504 1502 1501 1501 1499 1498 1496 1494 1492 1491
1542 1542 1542 1542 1542 1542 1543 1543 1543 1543 1543 1542 1540 1539 1538 1537 1535 1533 1532 1531 1529 1527 1525 1523 1521 1520 1518 1516 1515 1513 1511 1510 1508 1506 1505 1503 1502 1499 1498 1496 1494 1492 1491
1541 1543 1544 1544 1544 1544 1544 1543 1544 1543 1543 1543 1541 1540 1539 1538 1537 1535 1534 1533 1531 1528 1527 1525 1523 1521 1519 1517 1515 1513 1512 1510 1508 1506 1504 1502 1500 1498 1496 1495 1494 1492 1491
1539 1541 1541 1542 1543 1542 1543 1545 1544 1543 1543 1543 1542 1541 1540 1538 1537 1536 1535 1533 1532 1530 1527 1526 1523 1521 1519 1517 1515 1513 1510 1508 1506 1504 1502 1499 1497 1495 1493 1492 1490 1488 1486
1537 1538 1540 1540 1541 1541 1541 1542 1542 1542 1543 1543 1542 1541 1540 1539 1537 1536 1534 1532 1530 1529 1526 1524 1522 1520 1518 1516 1513 1510 1507 1504 1502 1499 1496 1494 1492 1491 1489 1487 1485 1483 1481
1536 1537 1539 1539 1538 1539 1539 1540 1539 1540 1541 1542 1541 1542 1541 1539 1537 1534 1533 1531 1528 1526 1525 1522 1520 1518 1516 1513 1509 1506 1502 1499 1496 1494 1492 1490 1488 1486 1484 1481 1479 1476 1473
1536 1537 1537 1539 1539 1539 1540 1541 1541 1541 1540 1541 1541 1541 1540 1538 1536 1533 1531 1530 1528 1527 1524 1522 1519 1516 1512 1507 1503 1500 1498 1496 1493 1491 1488 1486 1483 1481 1478 1475 1472 1469 1466
1535 1537 1538 1539 1539 1539 1541 1542 1543 1544 1543 1542 1541 1540 1539 1537 1535 1533 1531 1529 1527 1525 1522 1519 1515 1511 1507 1503 1501 1498 1495 1493 1489 1486 1483 1479 1476 1473 1470 1467 1463 1460 1457
1535 1537 1538 1538 1538 1539 1541 1542 1542 1543 1543 1543 1542 1540 1538 1537 1534 1533 1530 1527 1525 1522 1519 1515 1511 1507 1504 1501 1498 1495 1492 1489 1485 1482 1479 1475 1471 1468 1464 1461 1458 1455 1453
1533 1535 1536 1537 1536 1538 1541 1542 1543 1543 1543 1542 1541 1540 1539 1537 1534 1531 1528 1526 1523 1520 1516 1511 1507 1504 1501 1497 1494 1491 1488 1485 1482 1479 1475 1470 1465 1462 1460 1457 1455 1452 1449
1532 1535 1534 1534 1536 1536 1536 1536 1539 1540 1541 1541 1540 1538 1536 1534 1532 1530 1527 1523 1520 1516 1512 1508 1504 1500 1497 1494 1490 1487 1484 1482 1478 1475 1471 1466 1462 1459 1455 1453 1450 1447 1444